User: anonymous   Login
Location: Albany
(35.0000°S, 118.0000°E)
Time: 19:17:41
(UTC-04:00)
Language:

Cosmos 1933 - Orbit

View from above orbital plane
View from above orbital plane
View from above satellite
View from above satellite

Ground track
Ground track

The orbit data is extracted from the following two-line orbital elements,

1 18958U 88020A   17229.77710962  .00000460  00000-0  31765-4 0  9995
2 18958  82.5281  44.4157 0013083  75.3661 284.9014 15.03268689600784
Epoch (UTC): 17 August 2017 18:39:02
Eccentricity: 0.0013083
inclination: 82.5281°
perigee height: 548 km
apogee height: 566 km
right ascension of ascending node: 44.4157°
argument of perigee: 75.3661°
revolutions per day: 15.03268689
mean anomaly at epoch: 284.9014°
orbit number at epoch: 60078

The dashed part of the orbit path shows where the satellite is in the earth's shadow,  

DLR